,,Stat6,,Stat2,,Stat8,,Stat9,,Stat10,,Wind1,,Wind1,
time,status,PA1M_AVG,status,PR1M_SUM,status,RH1M_AVG,status,SR1M_AVG,status,TA1M_AVG,status,W1dAve1m,status,W1sAve1m,
2007-04-30, 00:00:00,VALID,917.436,VALID,0,VALID,100,VALID,0,VALID,20.5812,VALID,185,VALID,0,
2007-04-30, 00:01:00,VALID,917.427,VALID,0,VALID,100,VALID,0.0679233,VALID,20.5871,VALID,185,VALID,0.225109,
2007-04-30, 00:02:01,VALID,917.415,VALID,0,VALID,100,VALID,0.0169808,VALID,20.5874,VALID,105,VALID,0.598845,
2007-04-30, 00:03:01,VALID,917.409,VALID,0,VALID,100,VALID,0.0169808,VALID,20.5649,VALID,61,VALID,0.690358,
2007-04-30, 00:04:01,VALID,917.375,VALID,0,VALID,100,VALID,0.0339617,VALID,20.5649,VALID,48,VALID,0.797805,
2007-04-30, 00:05:01,VALID,917.363,VALID,0,VALID,100,VALID,0.0509425,VALID,20.5652,VALID,42,VALID,0.836806,
2007-04-30, 00:06:01,VALID,917.349,VALID,0,VALID,100,VALID,0.0339617,VALID,20.5744,VALID,31,VALID,1.01979,
2007-04-30, 00:07:01,VALID,917.324,VALID,0,VALID,100,VALID,0.0679233,VALID,20.5874,VALID,20,VALID,0.832849,
2007-04-30, 00:08:01,VALID,917.305,VALID,0,VALID,100,VALID,0.0679233,VALID,20.6066,VALID,18,VALID,0.764205,
2007-04-30, 00:09:01,VALID,917.277,VALID,0,VALID,100,VALID,0.0679233,VALID,20.6228,VALID,18,VALID,0.965661,
2007-04-30, 00:10:00,VALID,917.244,VALID,0,VALID,100,VALID,0.0169808,VALID,20.6363,VALID,29,VALID,1.30087,
2007-04-30, 00:11:00,VALID,917.218,VALID,0,VALID,100,VALID,0.0339617,VALID,20.6458,VALID,18,VALID,1.20488,
2007-04-30, 00:12:00,VALID,917.209,VALID,0,VALID,100,VALID,0.0509425,VALID,20.6493,VALID,28,VALID,1.11719,
2007-04-30, 00:13:00,VALID,917.207,VALID,0,VALID,100,VALID,0.0339617,VALID,20.6426,VALID,8,VALID,1.22129,
2007-04-30, 00:14:00,VALID,917.203,VALID,0,VALID,100,VALID,-0.0679233,VALID,20.6444,VALID,21,VALID,1.08926,
2007-04-30, 00:15:00,VALID,917.188,VALID,0,VALID,100,VALID,-0.0679233,VALID,20.6509,VALID,26,VALID,1.30488,
2007-04-30, 00:16:00,VALID,917.179,VALID,0,VALID,100,VALID,-0.0509425,VALID,20.6411,VALID,20,VALID,1.05529,
2007-04-30, 00:17:00,VALID,917.16,VALID,0,VALID,100,VALID,-0.0679233,VALID,20.6476,VALID,6,VALID,0.746701,
2007-04-30, 00:18:00,VALID,917.12,VALID,0,VALID,100,VALID,-0.0339617,VALID,20.6444,VALID,22,VALID,0.789742,
2007-04-30, 00:19:00,VALID,917.11,VALID,0,VALID,100,VALID,-0.0509425,VALID,20.6604,VALID,31,VALID,0.986328,
2007-04-30, 00:20:00,VALID,917.088,VALID,0,VALID,100,VALID,-0.0509425,VALID,20.6706,VALID,22,VALID,0.927144,
2007-04-30, 00:21:00,VALID,917.091,VALID,0,VALID,100,VALID,-0.0509425,VALID,20.6674,VALID,13,VALID,0.708939,
2007-04-30, 00:22:00,VALID,917.074,VALID,0,VALID,100,VALID,-0.0849042,VALID,20.6706,VALID,10,VALID,0.407774,
2007-04-30, 00:23:00,VALID,917.063,VALID,0,VALID,100,VALID,-0.0339617,VALID,20.6571,VALID,354,VALID,0.706659,
2007-04-30, 00:24:00,VALID,917.077,VALID,0,VALID,100,VALID,-0.0849042,VALID,20.6706,VALID,3,VALID,0.554315,
2007-04-30, 00:25:00,VALID,917.083,VALID,0,VALID,100,VALID,-0.101885,VALID,20.6833,VALID,352,VALID,0.718006,
2007-04-30, 00:26:00,VALID,917.069,VALID,0,VALID,100,VALID,-0.0679233,VALID,20.6936,VALID,25,VALID,0.961111,
2007-04-30, 00:27:00,VALID,917.071,VALID,0,VALID,100,VALID,-0.0339617,VALID,20.6955,VALID,28,VALID,0.839311,
2007-04-30, 00:28:00,VALID,917.066,VALID,0,VALID,100,VALID,-0.0679233,VALID,20.7261,VALID,14,VALID,0.696646,
2007-04-30, 00:29:00,VALID,917.067,VALID,0,VALID,100,VALID,-0.0849042,VALID,20.7261,VALID,4,VALID,1.00372,
2007-04-30, 00:30:00,VALID,917.064,VALID,0,VALID,100,VALID,-0.0849042,VALID,20.7261,VALID,355,VALID,0.645833,
2007-04-30, 00:31:00,VALID,917.06,VALID,0,VALID,100,VALID,-0.0849042,VALID,20.7126,VALID,353,VALID,0.293445,
2007-04-30, 00:32:00,VALID,917.05,VALID,0,VALID,100,VALID,-0.0679233,VALID,20.7323,VALID,17,VALID,1.01926,
2007-04-30, 00:33:00,VALID,917.032,VALID,0,VALID,100,VALID,-0.101885,VALID,20.7293,VALID,34,VALID,1.31486,
2007-04-30, 00:34:00,VALID,917.012,VALID,0,VALID,100,VALID,-0.0849042,VALID,20.7255,VALID,19,VALID,1.66523,
2007-04-30, 00:35:00,VALID,917,VALID,0,VALID,100,VALID,-0.0849042,VALID,20.7545,VALID,15,VALID,1.48065,
2007-04-30, 00:36:00,VALID,917.016,VALID,0,VALID,100,VALID,-0.0509425,VALID,20.784,VALID,350,VALID,0.836664,
2007-04-30, 00:37:00,VALID,916.998,VALID,0,VALID,100,VALID,-0.0509425,VALID,20.7904,VALID,2,VALID,0.480373,
2007-04-30, 00:38:00,VALID,916.994,VALID,0,VALID,100,VALID,-0.0679233,VALID,20.768,VALID,339,VALID,0.595846,
2007-04-30, 00:39:00,VALID,916.986,VALID,0,VALID,100,VALID,-0.0849042,VALID,20.781,VALID,4,VALID,0.646205,
2007-04-30, 00:40:00,VALID,916.993,VALID,0,VALID,100,VALID,-0.0849042,VALID,20.7945,VALID,19,VALID,0.768999,
2007-04-30, 00:41:00,VALID,916.976,VALID,0,VALID,100,VALID,-0.0679233,VALID,20.7942,VALID,30,VALID,1.20985,
2007-04-30, 00:42:00,VALID,916.964,VALID,0,VALID,100,VALID,-0.0849042,VALID,20.8067,VALID,20,VALID,1.05107,
2007-04-30, 00:43:00,VALID,916.926,VALID,0,VALID,100,VALID,-0.0679233,VALID,20.7902,VALID,18,VALID,1.85447,
2007-04-30, 00:44:00,VALID,916.895,VALID,0,VALID,100,VALID,-0.0509425,VALID,20.8097,VALID,33,VALID,1.93713,
2007-04-30, 00:45:00,VALID,916.893,VALID,0,VALID,99.9807,VALID,-0.0509425,VALID,20.8359,VALID,17,VALID,1.01272,
2007-04-30, 00:46:00,VALID,916.877,VALID,0,VALID,99.9621,VALID,-0.0679233,VALID,20.8589,VALID,22,VALID,0.484557,
2007-04-30, 00:47:00,VALID,916.865,VALID,0,VALID,99.854,VALID,-0.0679233,VALID,20.8546,VALID,19,VALID,0.0770833,
2007-04-30, 00:48:00,VALID,916.838,VALID,0,VALID,99.8006,VALID,-0.0339617,VALID,20.8586,VALID,19,VALID,0.161585,
2007-04-30, 00:49:00,VALID,916.818,VALID,0,VALID,99.8133,VALID,-0.0509425,VALID,20.8489,VALID,19,VALID,0.334936,
2007-04-30, 00:50:00,VALID,916.821,VALID,0,VALID,99.896,VALID,-0.0679233,VALID,20.8094,VALID,20,VALID,0.290923,
2007-04-30, 00:51:00,VALID,916.808,VALID,0,VALID,99.9893,VALID,-0.0509425,VALID,20.8129,VALID,31,VALID,0.67702,
2007-04-30, 00:52:00,VALID,916.801,VALID,0,VALID,99.9964,VALID,-0.0339617,VALID,20.8037,VALID,39,VALID,0.949405,
2007-04-30, 00:53:00,VALID,916.807,VALID,0,VALID,100,VALID,-0.0339617,VALID,20.7829,VALID,37,VALID,0.804155,
2007-04-30, 00:54:00,VALID,916.806,VALID,0,VALID,100,VALID,-0.0679233,VALID,20.7777,VALID,31,VALID,0.421875,
2007-04-30, 00:55:00,VALID,916.808,VALID,0,VALID,100,VALID,-0.0679233,VALID,20.751,VALID,32,VALID,0.783482,
2007-04-30, 00:56:00,VALID,916.791,VALID,0,VALID,100,VALID,0,VALID,20.7183,VALID,35,VALID,0.257254,
2007-04-30, 00:57:00,VALID,916.791,VALID,0,VALID,100,VALID,-0.0339617,VALID,20.6988,VALID,35,VALID,0.423781,
2007-04-30, 00:58:00,VALID,916.778,VALID,0,VALID,100,VALID,-0.0169808,VALID,20.702,VALID,38,VALID,0.295486,
2007-04-30, 00:59:00,VALID,916.79,VALID,0,VALID,100,VALID,-0.152827,VALID,20.7101,VALID,26,VALID,0.636458,
2007-04-30, 01:00:00,VALID,916.76,VALID,0,VALID,100,VALID,-0.118866,VALID,20.7001,VALID,25,VALID,0.824777,
2007-04-30, 01:01:00,VALID,916.72,VALID,0,VALID,100,VALID,-0.118866,VALID,20.7033,VALID,4,VALID,0.512718,
2007-04-30, 01:02:00,VALID,916.711,VALID,0,VALID,100,VALID,-0.101885,VALID,20.6906,VALID,26,VALID,0.355769,
2007-04-30, 01:03:00,VALID,916.713,VALID,0,VALID,100,VALID,-0.135847,VALID,20.6971,VALID,33,VALID,0.600654,
2007-04-30, 01:04:00,VALID,916.727,VALID,0,VALID,100,VALID,-0.135847,VALID,20.7201,VALID,35,VALID,0.656432,
2007-04-30, 01:05:00,VALID,916.708,VALID,0,VALID,100,VALID,-0.101885,VALID,20.7361,VALID,43,VALID,1.33434,
2007-04-30, 01:06:00,VALID,916.728,VALID,0,VALID,100,VALID,-0.118866,VALID,20.7458,VALID,25,VALID,1.03452,
2007-04-30, 01:07:00,VALID,916.732,VALID,0,VALID,100,VALID,-0.169808,VALID,20.7693,VALID,24,VALID,0.330611,
2007-04-30, 01:08:00,VALID,916.724,VALID,0,VALID,100,VALID,-0.186789,VALID,20.759,VALID,31,VALID,0.320822,
2007-04-30, 01:09:00,VALID,916.726,VALID,0,VALID,100,VALID,-0.186789,VALID,20.7596,VALID,36,VALID,0.620276,
2007-04-30, 01:10:00,VALID,916.723,VALID,0,VALID,100,VALID,-0.135847,VALID,20.7563,VALID,21,VALID,0.176847,
2007-04-30, 01:11:00,VALID,916.715,VALID,0,VALID,100,VALID,-0.135847,VALID,20.7363,VALID,27,VALID,0.29581,
2007-04-30, 01:12:00,VALID,916.714,VALID,0,VALID,100,VALID,-0.152827,VALID,20.7398,VALID,60,VALID,0.236235,
2007-04-30, 01:13:00,VALID,916.711,VALID,0,VALID,100,VALID,-0.169808,VALID,20.7398,VALID,64,VALID,0.0158067,
2007-04-30, 01:14:00,VALID,916.683,VALID,0,VALID,100,VALID,-0.0339617,VALID,20.7347,VALID,69,VALID,0.286754,
2007-04-30, 01:15:00,VALID,916.664,VALID,0,VALID,100,VALID,-0.0169808,VALID,20.738,VALID,81,VALID,0.317264,
2007-04-30, 01:16:00,VALID,916.651,VALID,0,VALID,100,VALID,-0.0509425,VALID,20.748,VALID,75,VALID,0.488889,
2007-04-30, 01:17:00,VALID,916.642,VALID,0,VALID,100,VALID,-0.0339617,VALID,20.7507,VALID,58,VALID,0.629492,
2007-04-30, 01:18:00,VALID,916.638,VALID,0,VALID,100,VALID,-0.0169808,VALID,20.7345,VALID,46,VALID,0.200036,
2007-04-30, 01:19:00,VALID,916.638,VALID,0,VALID,100,VALID,-0.0339617,VALID,20.7442,VALID,33,VALID,0.248757,
2007-04-30, 01:20:00,VALID,916.631,VALID,0,VALID,100,VALID,-0.0169808,VALID,20.731,VALID,7,VALID,0.257631,
2007-04-30, 01:21:00,VALID,916.618,VALID,0,VALID,100,VALID,-0.0169808,VALID,20.7215,VALID,5,VALID,0.022928,
2007-04-30, 01:22:00,VALID,916.601,VALID,0,VALID,100,VALID,-0.0339617,VALID,20.725,VALID,354,VALID,0.155185,
2007-04-30, 01:23:00,VALID,916.601,VALID,0,VALID,100,VALID,-0.0169808,VALID,20.7115,VALID,278,VALID,0.432478,
2007-04-30, 01:24:00,VALID,916.608,VALID,0,VALID,100,VALID,-0.0169808,VALID,20.7023,VALID,271,VALID,0.353906,
2007-04-30, 01:25:00,VALID,916.617,VALID,0,VALID,100,VALID,-0.0169808,VALID,20.6855,VALID,280,VALID,0.125363,
2007-04-30, 01:26:00,VALID,916.638,VALID,0.4,VALID,100,VALID,-0.0509425,VALID,20.728,VALID,26,VALID,1.00857,
2007-04-30, 01:27:00,VALID,916.635,VALID,0.8,VALID,100,VALID,-0.0339617,VALID,20.7802,VALID,37,VALID,0.788154,
2007-04-30, 01:28:00,VALID,916.591,VALID,0.4,VALID,100,VALID,-0.0339617,VALID,20.7767,VALID,5,VALID,0.689862,
2007-04-30, 01:29:00,VALID,916.588,VALID,0,VALID,100,VALID,-0.0339617,VALID,20.7312,VALID,14,VALID,0.351376,
2007-04-30, 01:30:00,VALID,916.585,VALID,0.4,VALID,100,VALID,-0.0509425,VALID,20.6926,VALID,53,VALID,1.47999,
2007-04-30, 01:31:00,VALID,916.552,VALID,0.4,VALID,100,VALID,-0.0509425,VALID,20.6633,VALID,58,VALID,1.42988,
2007-04-30, 01:32:00,VALID,916.511,VALID,0.2,VALID,100,VALID,-0.0339617,VALID,20.6696,VALID,64,VALID,0.574963,
2007-04-30, 01:33:00,VALID,916.507,VALID,0.2,VALID,100,VALID,-0.0169808,VALID,20.6598,VALID,356,VALID,0.382813,
2007-04-30, 01:34:00,VALID,916.522,VALID,0,VALID,100,VALID,-0.0169808,VALID,20.6663,VALID,35,VALID,1.82217,
2007-04-30, 01:35:00,VALID,916.502,VALID,0,VALID,100,VALID,-0.0169808,VALID,20.6404,VALID,31,VALID,2.16186,
2007-04-30, 01:36:00,VALID,916.427,VALID,0,VALID,100,VALID,-0.0509425,VALID,20.6311,VALID,31,VALID,3.75986,
2007-04-30, 01:37:00,VALID,916.466,VALID,0,VALID,100,VALID,-0.0169808,VALID,20.5917,VALID,24,VALID,1.99516,
2007-04-30, 01:38:00,VALID,916.508,VALID,0,VALID,100,VALID,-0.0509425,VALID,20.5952,VALID,282,VALID,1.28089,
2007-04-30, 01:39:00,VALID,916.491,VALID,0,VALID,100,VALID,-0.0339617,VALID,20.6022,VALID,178,VALID,0.745908,
2007-04-30, 01:40:00,VALID,916.497,VALID,0,VALID,100,VALID,-0.0509425,VALID,20.5954,VALID,237,VALID,0.441761,
2007-04-30, 01:41:00,VALID,916.489,VALID,0,VALID,100,VALID,-0.0339617,VALID,20.569,VALID,304,VALID,0.389648,
2007-04-30, 01:42:00,VALID,916.467,VALID,0,VALID,100,VALID,-0.0509425,VALID,20.5727,VALID,50,VALID,0.597301,
2007-04-30, 01:43:00,VALID,916.451,VALID,0,VALID,100,VALID,-0.0509425,VALID,20.5722,VALID,23,VALID,1.01406,
2007-04-30, 01:44:00,VALID,916.453,VALID,0,VALID,100,VALID,-0.0679233,VALID,20.5473,VALID,41,VALID,1.39206,
2007-04-30, 01:45:00,VALID,916.432,VALID,0,VALID,100,VALID,-0.101885,VALID,20.5373,VALID,37,VALID,1.63743,
2007-04-30, 01:46:00,VALID,916.424,VALID,0,VALID,100,VALID,-0.0679233,VALID,20.5211,VALID,29,VALID,1.87786,
2007-04-30, 01:47:00,VALID,916.433,VALID,0,VALID,100,VALID,-0.0849042,VALID,20.5076,VALID,46,VALID,1.06337,
2007-04-30, 01:48:00,VALID,916.428,VALID,0,VALID,100,VALID,-0.0339617,VALID,20.5338,VALID,29,VALID,1.24891,
2007-04-30, 01:49:00,VALID,916.433,VALID,0,VALID,100,VALID,-0.0679233,VALID,20.5335,VALID,35,VALID,1.22887,
2007-04-30, 01:50:00,VALID,916.433,VALID,0,VALID,100,VALID,-0.0679233,VALID,20.5138,VALID,28,VALID,1.28089,
2007-04-30, 01:51:00,VALID,916.446,VALID,0,VALID,100,VALID,-0.0849042,VALID,20.5308,VALID,40,VALID,1.30918,
2007-04-30, 01:52:00,VALID,916.466,VALID,0,VALID,100,VALID,-0.0849042,VALID,20.5533,VALID,42,VALID,0.954241,
2007-04-30, 01:53:00,VALID,916.471,VALID,0,VALID,100,VALID,-0.0509425,VALID,20.5368,VALID,25,VALID,1.21711,
2007-04-30, 01:54:00,VALID,916.475,VALID,0,VALID,100,VALID,-0.0509425,VALID,20.5403,VALID,33,VALID,1.02471,
2007-04-30, 01:55:00,VALID,916.501,VALID,0,VALID,100,VALID,-0.0509425,VALID,20.5143,VALID,352,VALID,1.20863,
2007-04-30, 01:56:00,VALID,916.496,VALID,0,VALID,100,VALID,-0.0339617,VALID,20.5011,VALID,332,VALID,1.1353,
2007-04-30, 01:57:00,VALID,916.485,VALID,0,VALID,100,VALID,-0.0339617,VALID,20.4754,VALID,17,VALID,2.50449,
2007-04-30, 01:58:00,VALID,916.507,VALID,0,VALID,100,VALID,-0.0849042,VALID,20.5083,VALID,41,VALID,1.25305,
2007-04-30, 01:59:00,VALID,916.505,VALID,0,VALID,100,VALID,-0.0509425,VALID,20.5246,VALID,33,VALID,0.0210756,
2007-04-30, 02:00:00,VALID,916.514,VALID,0,VALID,100,VALID,-0.0509425,VALID,20.5178,VALID,339,VALID,0.408296,
2007-04-30, 02:01:00,VALID,916.514,VALID,0,VALID,100,VALID,-0.0339617,VALID,20.5178,VALID,8,VALID,0.691778,
2007-04-30, 02:02:00,VALID,916.509,VALID,0,VALID,100,VALID,-0.0679233,VALID,20.544,VALID,39,VALID,1.2252,
2007-04-30, 02:03:00,VALID,916.498,VALID,0,VALID,100,VALID,-0.0169808,VALID,20.534,VALID,16,VALID,1.34115,
2007-04-30, 02:04:00,VALID,916.511,VALID,0,VALID,100,VALID,-0.0509425,VALID,20.5378,VALID,26,VALID,1.55729,
2007-04-30, 02:05:00,VALID,916.501,VALID,0,VALID,100,VALID,-0.0679233,VALID,20.5311,VALID,44,VALID,1.11602,
2007-04-30, 02:06:00,VALID,916.474,VALID,0,VALID,100,VALID,-0.0849042,VALID,20.5181,VALID,24,VALID,1.49581,
2007-04-30, 02:07:00,VALID,916.466,VALID,0,VALID,100,VALID,-0.0509425,VALID,20.5081,VALID,31,VALID,1.1238,
2007-04-30, 02:08:00,VALID,916.446,VALID,0,VALID,100,VALID,-0.0339617,VALID,20.5343,VALID,44,VALID,0.84013,
2007-04-30, 02:09:00,VALID,916.449,VALID,0,VALID,100,VALID,-0.0339617,VALID,20.5473,VALID,35,VALID,1.03533,
2007-04-30, 02:10:00,VALID,916.448,VALID,0,VALID,100,VALID,-0.0509425,VALID,20.544,VALID,17,VALID,1.01563,
2007-04-30, 02:11:00,VALID,916.445,VALID,0,VALID,100,VALID,-0.0339617,VALID,20.5046,VALID,359,VALID,0.934095,
2007-04-30, 02:12:00,VALID,916.417,VALID,0,VALID,100,VALID,-0.0169808,VALID,20.5111,VALID,347,VALID,0.699855,
2007-04-30, 02:13:00,VALID,916.41,VALID,0,VALID,100,VALID,-0.0679233,VALID,20.4986,VALID,9,VALID,0.825335,
2007-04-30, 02:14:00,VALID,916.401,VALID,0,VALID,100,VALID,-0.0509425,VALID,20.5091,VALID,43,VALID,1.24833,
2007-04-30, 02:15:00,VALID,916.388,VALID,0,VALID,100,VALID,-0.0509425,VALID,20.4981,VALID,23,VALID,1.78906,
2007-04-30, 02:16:00,VALID,916.392,VALID,0,VALID,100,VALID,-0.0339617,VALID,20.4754,VALID,37,VALID,1.35387,
2007-04-30, 02:17:00,VALID,916.382,VALID,0,VALID,100,VALID,-0.0509425,VALID,20.4916,VALID,36,VALID,1.10664,
2007-04-30, 02:18:00,VALID,916.393,VALID,0,VALID,100,VALID,-0.0679233,VALID,20.5151,VALID,37,VALID,0.771662,
2007-04-30, 02:19:00,VALID,916.396,VALID,0,VALID,100,VALID,-0.0679233,VALID,20.4986,VALID,46,VALID,0.786345,
2007-04-30, 02:20:00,VALID,916.409,VALID,0,VALID,100,VALID,-0.0679233,VALID,20.4891,VALID,10,VALID,0.0375744,
2007-04-30, 02:21:00,VALID,916.422,VALID,0,VALID,100,VALID,-0.0339617,VALID,20.4826,VALID,11,VALID,0.105923,
2007-04-30, 02:22:00,VALID,916.422,VALID,0,VALID,100,VALID,-0.0849042,VALID,20.4891,VALID,10,VALID,0.390244,
2007-04-30, 02:23:00,VALID,916.428,VALID,0,VALID,100,VALID,-0.0509425,VALID,20.4921,VALID,352,VALID,0.458629,
2007-04-30, 02:24:00,VALID,916.429,VALID,0,VALID,100,VALID,-0.0339617,VALID,20.4656,VALID,354,VALID,0.246875,
2007-04-30, 02:25:00,VALID,916.447,VALID,0,VALID,100,VALID,-0.0169808,VALID,20.4591,VALID,246,VALID,0.326349,
2007-04-30, 02:26:00,VALID,916.437,VALID,0,VALID,100,VALID,-0.0509425,VALID,20.4559,VALID,270,VALID,0.109375,
2007-04-30, 02:27:00,VALID,916.459,VALID,0,VALID,100,VALID,-0.0339617,VALID,20.4726,VALID,271,VALID,0.016369,
2007-04-30, 02:28:00,VALID,916.445,VALID,0,VALID,100,VALID,-0.0679233,VALID,20.4726,VALID,292,VALID,0.202324,
2007-04-30, 02:29:00,VALID,916.43,VALID,0,VALID,100,VALID,0.0679233,VALID,20.4808,VALID,35,VALID,1.0416,
2007-04-30, 02:30:00,VALID,916.434,VALID,0,VALID,100,VALID,0,VALID,20.5006,VALID,39,VALID,1.01363,
2007-04-30, 02:31:00,VALID,916.418,VALID,0,VALID,100,VALID,0.0339617,VALID,20.523,VALID,32,VALID,0.741168,
2007-04-30, 02:32:00,VALID,916.411,VALID,0,VALID,100,VALID,0.0339617,VALID,20.4833,VALID,19,VALID,0.86843,
2007-04-30, 02:33:00,VALID,916.4,VALID,0,VALID,100,VALID,0.0169808,VALID,20.5038,VALID,37,VALID,0.765053,
2007-04-30, 02:34:00,VALID,916.393,VALID,0,VALID,100,VALID,0.0679233,VALID,20.51,VALID,37,VALID,0.0186298,
2007-04-30, 02:35:00,VALID,916.382,VALID,0,VALID,100,VALID,0.0169808,VALID,20.5165,VALID,37,VALID,0.134448,
2007-04-30, 02:36:00,VALID,916.368,VALID,0,VALID,100,VALID,0.0339617,VALID,20.523,VALID,37,VALID,0.0227108,
2007-04-30, 02:37:00,VALID,916.353,VALID,0,VALID,100,VALID,0,VALID,20.5198,VALID,37,VALID,0.138579,
2007-04-30, 02:38:00,VALID,916.343,VALID,0,VALID,100,VALID,0.0339617,VALID,20.496,VALID,37,VALID,0.155007,
2007-04-30, 02:39:00,VALID,916.33,VALID,0,VALID,100,VALID,0.0509425,VALID,20.49,VALID,37,VALID,0.0403054,
2007-04-30, 02:40:00,VALID,916.317,VALID,0,VALID,100,VALID,0.0509425,VALID,20.4768,VALID,37,VALID,0.0772372,
2007-04-30, 02:41:00,VALID,916.305,VALID,0,VALID,100,VALID,0.0679233,VALID,20.4571,VALID,15,VALID,0.272347,
2007-04-30, 02:42:00,VALID,916.299,VALID,0,VALID,100,VALID,0.0679233,VALID,20.4638,VALID,342,VALID,0.795455,
2007-04-30, 02:43:00,VALID,916.295,VALID,0,VALID,100,VALID,0.0339617,VALID,20.49,VALID,35,VALID,1.11007,
2007-04-30, 02:44:00,VALID,916.277,VALID,0,VALID,100,VALID,0.0509425,VALID,20.4898,VALID,38,VALID,0.512576,
2007-04-30, 02:45:00,VALID,916.27,VALID,0,VALID,100,VALID,0.0339617,VALID,20.483,VALID,39,VALID,0.49782,
2007-04-30, 02:46:00,VALID,916.242,VALID,0,VALID,100,VALID,0.0849042,VALID,20.4828,VALID,39,VALID,0.222565,
2007-04-30, 02:47:00,VALID,916.243,VALID,0,VALID,100,VALID,0.0679233,VALID,20.5122,VALID,39,VALID,0.139258,
2007-04-30, 02:48:00,VALID,916.245,VALID,0,VALID,100,VALID,0.101885,VALID,20.5025,VALID,39,VALID,0.135417,
2007-04-30, 02:49:00,VALID,916.252,VALID,0,VALID,100,VALID,0.0509425,VALID,20.47,VALID,39,VALID,0.191512,
2007-04-30, 02:50:00,VALID,916.235,VALID,0,VALID,100,VALID,0.0509425,VALID,20.4473,VALID,39,VALID,0.108285,
2007-04-30, 02:51:00,VALID,916.231,VALID,0,VALID,100,VALID,0.0679233,VALID,20.4408,VALID,39,VALID,0.704033,
2007-04-30, 02:52:00,VALID,916.227,VALID,0,VALID,100,VALID,0.0509425,VALID,20.4636,VALID,344,VALID,0.3621,
2007-04-30, 02:53:00,VALID,916.224,VALID,0,VALID,100,VALID,0.0849042,VALID,20.473,VALID,356,VALID,0.0873264,
2007-04-30, 02:54:00,VALID,916.209,VALID,0,VALID,100,VALID,0.0849042,VALID,20.4768,VALID,356,VALID,0.0342262,
2007-04-30, 02:55:00,VALID,916.202,VALID,0,VALID,100,VALID,0.0849042,VALID,20.4733,VALID,356,VALID,0.136328,
2007-04-30, 02:56:00,VALID,916.177,VALID,0,VALID,100,VALID,0.0679233,VALID,20.4506,VALID,356,VALID,0.0823038,
2007-04-30, 02:57:00,VALID,916.171,VALID,0,VALID,100,VALID,0.0679233,VALID,20.4376,VALID,356,VALID,0,
2007-04-30, 02:58:00,VALID,916.145,VALID,0,VALID,100,VALID,0.0509425,VALID,20.4281,VALID,5,VALID,0.251598,
2007-04-30, 02:59:00,VALID,916.118,VALID,0,VALID,100,VALID,-0.0509425,VALID,20.4367,VALID,14,VALID,0.316229,
2007-04-30, 03:00:00,VALID,916.117,VALID,0,VALID,100,VALID,-0.0339617,VALID,20.4526,VALID,14,VALID,0.320313,
2007-04-30, 03:01:00,VALID,916.103,VALID,0,VALID,100,VALID,-0.0679233,VALID,20.4632,VALID,354,VALID,0.404204,
2007-04-30, 03:02:00,VALID,916.08,VALID,0,VALID,100,VALID,-0.0169808,VALID,20.424,VALID,333,VALID,0.527435,
2007-04-30, 03:03:00,VALID,916.049,VALID,0,VALID,100,VALID,-0.0509425,VALID,20.4072,VALID,35,VALID,0.767933,
2007-04-30, 03:04:00,VALID,916.049,VALID,0,VALID,100,VALID,-0.0679233,VALID,20.4337,VALID,36,VALID,1.12333,
2007-04-30, 03:05:00,VALID,916.047,VALID,0,VALID,100,VALID,-0.0849042,VALID,20.4269,VALID,36,VALID,0.897049,
2007-04-30, 03:06:00,VALID,916.074,VALID,0,VALID,100,VALID,-0.0679233,VALID,20.4464,VALID,33,VALID,0.583984,
2007-04-30, 03:07:00,VALID,916.074,VALID,0,VALID,100,VALID,-0.0509425,VALID,20.4591,VALID,50,VALID,1.18368,
2007-04-30, 03:08:00,VALID,916.081,VALID,0,VALID,100,VALID,-0.0849042,VALID,20.4597,VALID,48,VALID,0.809273,
2007-04-30, 03:09:00,VALID,916.087,VALID,0,VALID,100,VALID,-0.101885,VALID,20.4562,VALID,42,VALID,0.291726,
2007-04-30, 03:10:00,VALID,916.077,VALID,0,VALID,100,VALID,-0.0679233,VALID,20.4432,VALID,42,VALID,0.0177734,
2007-04-30, 03:11:00,VALID,916.073,VALID,0,VALID,100,VALID,-0.0849042,VALID,20.4334,VALID,40,VALID,0.693309,
2007-04-30, 03:12:00,VALID,916.074,VALID,0,VALID,100,VALID,-0.101885,VALID,20.4307,VALID,39,VALID,0.712891,
2007-04-30, 03:13:00,VALID,916.087,VALID,0,VALID,100,VALID,-0.0679233,VALID,20.411,VALID,292,VALID,0.502734,
2007-04-30, 03:14:00,VALID,916.1,VALID,0,VALID,100,VALID,0.0339617,VALID,20.39,VALID,26,VALID,0.569586,
2007-04-30, 03:15:00,VALID,916.103,VALID,0,VALID,100,VALID,0.0169808,VALID,20.3905,VALID,43,VALID,0.000381098,
2007-04-30, 03:16:00,VALID,916.123,VALID,0,VALID,100,VALID,0.0339617,VALID,20.3772,VALID,43,VALID,0.0226362,
2007-04-30, 03:17:00,VALID,916.123,VALID,0,VALID,100,VALID,0.0169808,VALID,20.374,VALID,47,VALID,0.112723,
2007-04-30, 03:18:00,VALID,916.139,VALID,0,VALID,100,VALID,0.0169808,VALID,20.3572,VALID,75,VALID,0.792259,
2007-04-30, 03:19:00,VALID,916.161,VALID,0,VALID,100,VALID,0.0339617,VALID,20.38,VALID,44,VALID,0.625,
2007-04-30, 03:20:00,VALID,916.166,VALID,0,VALID,100,VALID,-0.0169808,VALID,20.3967,VALID,48,VALID,0.645508,
2007-04-30, 03:21:00,VALID,916.178,VALID,0,VALID,100,VALID,0,VALID,20.4002,VALID,47,VALID,0.407774,
2007-04-30, 03:22:00,VALID,916.183,VALID,0,VALID,100,VALID,0.0169808,VALID,20.384,VALID,37,VALID,1.00174,
2007-04-30, 03:23:00,VALID,916.192,VALID,0,VALID,100,VALID,0.0169808,VALID,20.3894,VALID,341,VALID,0.213481,
2007-04-30, 03:24:00,VALID,916.191,VALID,0,VALID,100,VALID,0.0509425,VALID,20.39,VALID,316,VALID,0.913477,
2007-04-30, 03:25:00,VALID,916.184,VALID,0,VALID,100,VALID,0.0169808,VALID,20.3607,VALID,264,VALID,0.0886719,
2007-04-30, 03:26:00,VALID,916.183,VALID,0,VALID,100,VALID,0.0169808,VALID,20.367,VALID,264,VALID,0,
2007-04-30, 03:27:00,VALID,916.158,VALID,0,VALID,100,VALID,0,VALID,20.3702,VALID,264,VALID,0,
2007-04-30, 03:28:00,VALID,916.136,VALID,0,VALID,100,VALID,0.0169808,VALID,20.3697,VALID,264,VALID,0,
2007-04-30, 03:29:00,VALID,916.125,VALID,0,VALID,100,VALID,0.0509425,VALID,20.3637,VALID,302,VALID,0.211914,
2007-04-30, 03:30:00,VALID,916.102,VALID,0,VALID,100,VALID,0.0169808,VALID,20.3805,VALID,13,VALID,0.223895,
2007-04-30, 03:31:00,VALID,916.09,VALID,0,VALID,100,VALID,0.0169808,VALID,20.3905,VALID,22,VALID,0.589939,
2007-04-30, 03:32:00,VALID,916.098,VALID,0,VALID,100,VALID,0.0169808,VALID,20.367,VALID,323,VALID,0.327381,
2007-04-30, 03:33:00,VALID,916.082,VALID,0,VALID,100,VALID,0,VALID,20.3607,VALID,295,VALID,0,
2007-04-30, 03:34:00,VALID,916.061,VALID,0,VALID,100,VALID,0,VALID,20.3705,VALID,353,VALID,0.727148,
2007-04-30, 03:35:00,VALID,916.047,VALID,0,VALID,100,VALID,0.0169808,VALID,20.371,VALID,6,VALID,1.06001,
2007-04-30, 03:36:00,VALID,916.092,VALID,0,VALID,100,VALID,0.0339617,VALID,20.3443,VALID,312,VALID,0.93716,
2007-04-30, 03:37:00,VALID,916.102,VALID,0,VALID,100,VALID,0,VALID,20.3448,VALID,224,VALID,0.786914,